Granite Falls, MN

9:19 PM CST on December 10, 2019 (GMT -0600)
Granite Falls

Weather History for KGDB - October, 2019

Change the Weather History Date:

Tuesday, October 15, 2019

  Actual Average (WUND) Record (WUND)
Temperature  
Mean Temperature 39 °F -  
Max Temperature 45 °F - - (-1)
Min Temperature 33 °F - - (-1)
Degree Days  
Heating Degree Days 26    
Moisture  
Dew Point 37 °F    
Average Humidity 84    
Maximum Humidity 96    
Minimum Humidity 74    
Precipitation  
Precipitation 0.00 in - - ()
Sea Level Pressure  
Sea Level Pressure 29.96 in    
Wind  
Wind Speed 10 mph (WNW)    
Max Wind Speed 22 mph    
Max Gust Speed 28 mph    
Visibility 10 miles    
Events      
Averages and records for this station are not official NWS values.
T = Trace of Precipitation, MM = Missing Value Source: NWS Daily Summary

Daily Weather History Graph

Daily Weather History Graph

Search for Another Location

Airport or City:

Astronomy

Oct. 15, 2019 Rise Set
Actual Time 7:37 AM CDT 6:37 PM CDT
Civil Twilight 7:07 AM CDT 7:07 PM CDT
Nautical Twilight 6:34 AM CDT 7:41 PM CDT
Astronomical Twilight 6:00 AM CDT 8:14 PM CDT
Moon 7:55 PM CDT (10/15) 9:11 AM CDT (10/15)
Length of Visible Light 11h 59m
Length of Day
11h 00m
Full, 97% of the Moon is Illuminated
Oct 15
Full
Oct 21
Last Quarter
Oct 27
New
Nov 4
First Quarter
Nov 12
Full

Hourly Weather History & Observations

Time (CDT) Temp. Windchill Dew Point Humidity Pressure Visibility Wind Dir Wind Speed Gust Speed Precip Events Conditions
12:18 AM 44.4 °F 42.0 °F 36.7 °F 74% 29.82 in 10.0 mi NNE 4.6 mph - N/A   Overcast
12:37 AM 43.7 °F 41.1 °F 36.7 °F 76% 29.81 in 10.0 mi ENE 4.6 mph - N/A   Overcast
12:55 AM 42.3 °F 40.5 °F 36.5 °F 80% 29.81 in 10.0 mi NE 3.5 mph - N/A   Mostly Cloudy
12:56 AM 42.1 °F 39.2 °F 36.5 °F 81% 29.81 in 10.0 mi NE 4.6 mph - N/A   Mostly Cloudy
1:15 AM 40.1 °F 36.1 °F 36.1 °F 86% 29.80 in 10.0 mi NNE 5.8 mph - N/A   Scattered Clouds
1:38 AM 39.2 °F 35.0 °F 35.8 °F 88% 29.78 in 10.0 mi NNE 5.8 mph - N/A   Clear
1:56 AM 38.7 °F 35.2 °F 36.0 °F 90% 29.78 in 10.0 mi NNE 4.6 mph - N/A   Clear
2:15 AM 39.6 °F 35.4 °F 37.2 °F 91% 29.78 in 10.0 mi North 5.8 mph - N/A   Clear
2:35 AM 39.9 °F 35.8 °F 37.6 °F 91% 29.78 in 10.0 mi NNW 5.8 mph - N/A   Clear
2:36 AM 39.9 °F 35.1 °F 37.6 °F 91% 29.78 in 10.0 mi NNW 6.9 mph - N/A   Clear
2:55 AM 39.2 °F 34.2 °F 36.9 °F 91% 29.80 in 10.0 mi NW 6.9 mph - N/A   Clear
3:18 AM 37.4 °F 32.8 °F 35.4 °F 93% 29.81 in 10.0 mi WNW 5.8 mph - N/A   Clear
3:35 AM 37.2 °F 31.9 °F 35.1 °F 92% 29.81 in 10.0 mi WNW 6.9 mph - N/A   Clear
3:55 AM 36.5 °F 29.7 °F 34.7 °F 93% 29.81 in 10.0 mi WNW 9.2 mph - N/A   Clear
4:15 AM 36.7 °F 29.9 °F 34.7 °F 93% 29.81 in 10.0 mi NW 9.2 mph - N/A   Clear
4:16 AM 36.5 °F 29.2 °F 34.7 °F 93% 29.81 in 10.0 mi NW 10.4 mph - N/A   Clear
4:39 AM 36.7 °F 29.9 °F 34.7 °F 93% 29.83 in 10.0 mi WNW 9.2 mph - N/A   Clear
4:56 AM 36.7 °F 31.2 °F 34.7 °F 93% 29.83 in 10.0 mi WNW 6.9 mph - N/A   Clear
5:16 AM 36.3 °F 30.1 °F 34.5 °F 93% 29.82 in 10.0 mi WNW 8.1 mph - N/A   Clear
5:35 AM 35.6 °F 29.9 °F 33.8 °F 93% 29.83 in 10.0 mi West 6.9 mph - N/A   Clear
5:36 AM 35.4 °F 29.7 °F 33.8 °F 94% 29.84 in 10.0 mi West 6.9 mph - N/A   Clear
5:55 AM 34.9 °F 29.0 °F 33.6 °F 95% 29.84 in 10.0 mi West 6.9 mph - N/A   Mostly Cloudy
5:59 AM 35.4 °F 29.0 °F 34.2 °F 95% 29.85 in 10.0 mi West 8.1 mph - N/A   Mostly Cloudy
6:17 AM 36.7 °F 31.2 °F 35.1 °F 94% 29.85 in 10.0 mi WNW 6.9 mph - N/A   Overcast
6:37 AM 37.0 °F 31.6 °F 34.9 °F 92% 29.86 in 10.0 mi WNW 6.9 mph - N/A   Overcast
6:56 AM 34.9 °F 30.8 °F 33.1 °F 93% 29.86 in 10.0 mi West 4.6 mph - N/A   Scattered Clouds
7:15 AM 34.0 °F 28.0 °F 32.5 °F 94% 29.87 in 7.0 mi West 6.9 mph - N/A   Clear
7:16 AM 34.0 °F 28.0 °F 32.5 °F 94% 29.87 in 7.0 mi West 6.9 mph - N/A   Clear
7:35 AM 34.0 °F 28.8 °F 32.7 °F 95% 29.88 in 10.0 mi West 5.8 mph - N/A   Clear
7:40 AM 33.8 °F 27.7 °F 32.4 °F 94% 29.88 in 7.0 mi West 6.9 mph - N/A   Clear
7:57 AM 33.4 °F 26.6 °F 32.4 °F 96% 29.89 in 7.0 mi West 8.1 mph - N/A   Clear
8:16 AM 34.7 °F 26.9 °F 33.6 °F 96% 29.89 in 7.0 mi West 10.4 mph - N/A   Clear
8:35 AM 37.2 °F 28.7 °F 35.4 °F 93% 29.90 in 10.0 mi WNW 13.8 mph - N/A   Scattered Clouds
8:55 AM 40.1 °F 33.2 °F 36.7 °F 88% 29.90 in 7.0 mi West 11.5 mph - N/A   Mostly Cloudy
8:56 AM 40.1 °F 33.2 °F 36.5 °F 87% 29.90 in 10.0 mi West 11.5 mph - N/A   Mostly Cloudy
9:19 AM 41.2 °F 33.7 °F 36.7 °F 84% 29.91 in 10.0 mi WNW 13.8 mph 18.4 mph N/A   Mostly Cloudy
9:36 AM 41.0 °F 33.9 °F 36.7 °F 85% 29.91 in 10.0 mi WNW 12.7 mph 17.3 mph N/A   Overcast
9:56 AM 43.7 °F 37.3 °F 37.9 °F 80% 29.92 in 10.0 mi WNW 12.7 mph 21.9 mph N/A   Overcast
10:15 AM 43.3 °F 35.8 °F 37.9 °F 81% 29.92 in 10.0 mi WNW 16.1 mph 26.5 mph N/A   Overcast
10:35 AM 44.4 °F 37.5 °F 38.3 °F 79% 29.93 in 10.0 mi WNW 15.0 mph 23.0 mph N/A   Overcast
10:39 AM 44.1 °F 36.5 °F 38.1 °F 80% 29.93 in 10.0 mi WNW 17.3 mph 23.0 mph N/A   Overcast
10:58 AM 44.1 °F 35.4 °F 38.3 °F 80% 29.94 in 10.0 mi WNW 21.9 mph 26.5 mph N/A   Overcast
11:15 AM 44.6 °F 36.4 °F 38.1 °F 78% 29.94 in 10.0 mi WNW 20.7 mph 25.3 mph N/A   Overcast
11:35 AM 44.6 °F 37.2 °F 37.6 °F 76% 29.95 in 10.0 mi WNW 17.3 mph 27.6 mph N/A   Overcast
11:36 AM 44.6 °F 37.8 °F 37.6 °F 76% 29.95 in 10.0 mi WNW 15.0 mph 26.5 mph N/A   Overcast
11:55 AM 44.4 °F 36.4 °F 37.6 °F 77% 29.95 in 10.0 mi WNW 19.6 mph 26.5 mph N/A   Overcast
12:18 PM 44.6 °F 37.4 °F 37.8 °F 77% 29.96 in 10.0 mi WNW 16.1 mph 23.0 mph N/A   Overcast
12:36 PM 45.5 °F 38.3 °F 37.8 °F 74% 29.96 in 10.0 mi WNW 17.3 mph 23.0 mph N/A   Overcast
12:55 PM 45.5 °F 38.1 °F 37.6 °F 74% 29.97 in 10.0 mi WNW 18.4 mph 26.5 mph N/A   Overcast
12:56 PM 45.5 °F 38.1 °F 37.6 °F 74% 29.97 in 10.0 mi WNW 18.4 mph 26.5 mph N/A   Overcast
1:15 PM 45.5 °F 38.3 °F 37.6 °F 74% 29.97 in 10.0 mi WNW 17.3 mph - N/A   Overcast
1:16 PM 45.5 °F 38.6 °F 37.6 °F 74% 29.97 in 10.0 mi WNW 16.1 mph - N/A   Overcast
1:35 PM 45.0 °F 37.1 °F 37.2 °F 74% 29.98 in 7.0 mi WNW 19.6 mph 25.3 mph N/A   Overcast
1:57 PM 45.0 °F 37.1 °F 37.4 °F 75% 29.98 in 10.0 mi WNW 19.6 mph - N/A   Overcast
2:15 PM 44.6 °F 37.4 °F 37.2 °F 75% 29.99 in 7.0 mi WNW 16.1 mph 23.0 mph N/A   Overcast
2:35 PM 44.6 °F 38.4 °F 37.6 °F 76% 29.99 in 10.0 mi WNW 12.7 mph 19.6 mph N/A   Overcast
2:36 PM 44.6 °F 38.1 °F 37.6 °F 76% 29.99 in 10.0 mi WNW 13.8 mph 19.6 mph N/A   Overcast
2:55 PM 44.6 °F 36.9 °F 37.6 °F 76% 29.99 in 10.0 mi NW 18.4 mph 23.0 mph N/A   Overcast
2:56 PM 44.6 °F 36.9 °F 37.4 °F 76% 29.99 in 10.0 mi NW 18.4 mph 23.0 mph N/A   Overcast
3:19 PM 44.8 °F 38.0 °F 38.3 °F 78% 30.00 in 10.0 mi WNW 15.0 mph 19.6 mph N/A   Overcast
3:36 PM 44.2 °F 36.7 °F 37.8 °F 78% 30.01 in 10.0 mi WNW 17.3 mph 21.9 mph N/A   Overcast
3:56 PM 43.7 °F 36.6 °F 37.6 °F 79% 30.02 in 10.0 mi WNW 15.0 mph 20.7 mph N/A   Overcast
4:15 PM 43.7 °F 36.6 °F 37.9 °F 80% 30.03 in 10.0 mi WNW 15.0 mph 19.6 mph N/A   Overcast
4:16 PM 43.7 °F 36.9 °F 37.9 °F 80% 30.03 in 10.0 mi WNW 13.8 mph 19.6 mph N/A   Overcast
4:35 PM 43.7 °F 36.6 °F 37.9 °F 80% 30.04 in 10.0 mi WNW 15.0 mph 20.7 mph N/A   Overcast
4:39 PM 43.7 °F 36.3 °F 37.9 °F 80% 30.04 in 10.0 mi WNW 16.1 mph 20.7 mph N/A   Overcast
4:57 PM 43.2 °F 35.9 °F 38.3 °F 83% 30.04 in 7.0 mi WNW 15.0 mph 19.6 mph N/A   Overcast
5:16 PM 43.7 °F 35.7 °F 38.3 °F 81% 30.05 in 10.0 mi WNW 18.4 mph 21.9 mph N/A   Overcast
5:35 PM 43.7 °F 37.7 °F 38.3 °F 81% 30.06 in 10.0 mi WNW 11.5 mph 19.6 mph N/A   Overcast
5:36 PM 43.7 °F 37.7 °F 38.3 °F 81% 30.06 in 10.0 mi WNW 11.5 mph 19.6 mph N/A   Overcast
5:56 PM 43.7 °F 37.3 °F 38.5 °F 82% 30.07 in 10.0 mi WNW 12.7 mph 16.1 mph N/A   Overcast
6:18 PM 43.7 °F 37.7 °F 38.7 °F 82% 30.08 in 7.0 mi WNW 11.5 mph 18.4 mph N/A   Overcast
6:36 PM 43.7 °F 38.1 °F 38.8 °F 83% 30.08 in 10.0 mi WNW 10.4 mph 17.3 mph N/A   Overcast
6:56 PM 43.7 °F 37.7 °F 39.4 °F 85% 30.09 in 5.0 mi WNW 11.5 mph - N/A   Haze
7:15 PM 43.7 °F 37.3 °F 39.6 °F 85% 30.10 in 10.0 mi WNW 12.7 mph - N/A   Overcast
7:16 PM 43.7 °F 37.7 °F 39.6 °F 85% 30.10 in 10.0 mi WNW 11.5 mph - N/A   Overcast
7:35 PM 43.7 °F 37.7 °F 39.7 °F 86% 30.10 in 10.0 mi WNW 11.5 mph - N/A   Overcast
7:39 PM 43.7 °F 37.7 °F 39.7 °F 86% 30.10 in 10.0 mi WNW 11.5 mph - N/A   Overcast
7:58 PM 43.7 °F 38.1 °F 39.6 °F 85% 30.10 in 10.0 mi WNW 10.4 mph 18.4 mph N/A   Overcast
8:15 PM 43.9 °F 37.9 °F 39.4 °F 84% 30.11 in 10.0 mi WNW 11.5 mph 17.3 mph N/A   Overcast
8:35 PM 43.7 °F 37.3 °F 39.6 °F 85% 30.11 in 10.0 mi WNW 12.7 mph 18.4 mph N/A   Overcast
8:36 PM 43.7 °F 37.3 °F 39.6 °F 85% 30.11 in 10.0 mi WNW 12.7 mph 18.4 mph N/A   Overcast
8:56 PM 43.2 °F 35.6 °F 39.6 °F 87% 30.12 in 5.0 mi NW 16.1 mph 26.5 mph N/A   Overcast
9:18 PM 42.4 °F 35.0 °F 39.2 °F 88% 30.13 in 10.0 mi NW 15.0 mph 21.9 mph N/A   Overcast
9:37 PM 42.8 °F 35.8 °F 38.8 °F 86% 30.14 in 10.0 mi NW 13.8 mph 19.6 mph N/A   Overcast
10:15 PM 43.0 °F 36.0 °F 38.3 °F 84% 30.15 in 10.0 mi WNW 13.8 mph - N/A   Overcast
10:16 PM 43.0 °F 36.0 °F 38.3 °F 84% 30.15 in 10.0 mi WNW 13.8 mph 19.6 mph N/A   Overcast
10:35 PM 42.8 °F 37.5 °F 37.9 °F 83% 30.15 in 10.0 mi NW 9.2 mph 18.4 mph N/A   Overcast
10:57 PM 42.8 °F 37.5 °F 37.6 °F 82% 30.15 in 10.0 mi NW 9.2 mph 19.6 mph N/A   Overcast
11:15 PM 42.4 °F 35.7 °F 37.4 °F 82% 30.16 in 10.0 mi NW 12.7 mph 18.4 mph N/A   Overcast
11:35 PM 42.1 °F 34.5 °F 37.4 °F 83% 30.17 in 10.0 mi WNW 15.0 mph 19.6 mph N/A   Overcast
11:55 PM 41.9 °F 35.0 °F 36.7 °F 82% 30.17 in 10.0 mi NW 12.7 mph 19.6 mph N/A   Overcast
11:56 PM 41.9 °F 34.6 °F 36.7 °F 82% 30.17 in 10.0 mi WNW 13.8 mph 19.6 mph N/A   Overcast